Regional Weather Roundup
Issued by NWS

Home | Current Version | Previous Version | Graphics & Text | Print | Product List | Glossary Off
Versions: 1 2 3 4 5 6 7 8 9 10 11 12 13 14 15 16 17 18 19 20 21 22 23 24 25 26 27 28 29 30 31 32 33 34 35 36 37 38 39 40 41 42 43 44 45 46 47 48 49 50

000
ASUS43 KTOP 180459
RWRKS

WEATHER ROUNDUP FOR KANSAS
NATIONAL WEATHER SERVICE GOODLAND KS
1200 AM CDT SAT APR 18 2015

NOTE:  "FAIR" INDICATES FEW OR NO CLOUDS BELOW 12,000 FEET WITH NO
SIGNIFICANT WEATHER AND/OR OBSTRUCTIONS TO VISIBILITY.

KSZ001>006-013>018-027>032-041>047-180600-
NORTHWEST KANSAS

CITY           SKY/WX    TMP DP  RH WIND       PRES   REMARKS
GOODLAND       MOCLDY    47  47 100 E5        29.96F
HAYS           CLOUDY    61  52  72 SE9       29.94F
HILL CITY      TSTM      56  52  86 NW6       29.95S FOG
RUSSELL        CLOUDY    61  57  87 S9        29.93F
$$

KSZ061>065-074>080-084>089-180600-
SOUTHWEST KANSAS

CITY           SKY/WX    TMP DP  RH WIND       PRES   REMARKS
DODGE CITY     MOCLDY    57  54  89 S9        29.95R
ELKHART          N/A    N/A N/A N/A MISG        N/A
GARDEN CITY    LGT RAIN  52  47  83 E3        29.95S
GREAT BEND     CLOUDY    61  54  77 SE7       29.94F
LIBERAL        PTCLDY    55  46  71 S5        29.95F
$$

KSZ066>073-081>083-090>101-180600-
SOUTHEAST KANSAS

CITY           SKY/WX    TMP DP  RH WIND       PRES   REMARKS
CHANUTE        CLOUDY    64  61  90 E3        29.96F
COFFEYVILLE    CLOUDY    64  61  90 CALM      29.95S
HUTCHINSON     CLOUDY    60  56  86 SE3       29.95F
MEDICINE LODGE   N/A     62  57  83 E5        29.93F
NEWTON         CLOUDY    61  54  77 SE3       29.98S
PARSONS        CLOUDY    64  62  93 CALM      29.96F
WICHITA INTL   CLOUDY    62  57  83 CALM      29.95S
WICHITA JABRA  CLOUDY    60  57  89 CALM      29.96R
WINFIELD       CLOUDY    64  60  87 MISG      29.96S
$$

KSZ007>012-019>026-033>040-048>060-102>105-180600-
NORTHEAST KANSAS

CITY           SKY/WX    TMP DP  RH WIND       PRES   REMARKS
CONCORDIA      CLOUDY    59  57  93 SE6       29.95F
EMPORIA        CLOUDY    62  58  86 E6        29.96S
LAWRENCE       CLOUDY    59  57  93 CALM      29.96F
MANHATTAN      CLOUDY    65  57  75 N3        29.95F
OLATHE IND     CLOUDY    64  58  80 E6        29.97F
OLATHE EXE     CLOUDY    64  58  80 E3        29.97F
SALINA         CLOUDY    62  58  86 SE6       29.95F
TOPEKA BILLARD CLOUDY    61  57  87 CALM      29.96F
TOPEKA FORBES  CLOUDY    62  56  80 CALM      29.96F
$$



USA.gov is the U.S. government's official web portal to all federal, state and local government web resources and services.